星链-32415 (STARLINK-32415)

导读

STARLINK-32415是美国太空探索技术公司SpaceX星链星座的一员,于2024年11月7日发射入轨。星链星座旨在构建全球卫星互联网,该卫星承担为全球偏远地区、海洋空域等提供低延迟宽带互联网接入服务的任务,进一步扩充了星链低轨卫星网络的服务覆盖能力与容量。

Basic Information
目录编号:
61861
目录名称:
STARLINK-32415
国际标识:
2024-202S
轨道中心:
EARTH
卫星名称:
星链-32415
卫星全名:
星链-32415 (STARLINK-32415)
卫星状态:
在轨 (已飞行666 天)
发射日期:
2024-11-07 UTC
国别 :
美国 (US)
星等 :
--
Orbit Information
数据来源 国际轨道数据
星历时间: 2026-09-04T13:49:25+0800
8小时前
查看轨道信息
半长轴: 6861.235km
偏心率: 0.000175
轨道倾角: 43.002°
近地点辐角 287.026°
升交点赤经 309.733°
平近点角 73.040°
近地点: 481.897km
远地点: 484.299km
周期: 94.268分钟
每日圈数: 15.275639
Detailed Information
固有亮度:
5
最大亮度:
2.5
卫星平台:
Starlink V1.0
覆盖范围:
全球
运营商:
太空探索技术公司
运营商所在国:
美国
制造商(研发单位):
太空探索技术公司
制造商所在国:
美国
使用方式:
暂无
Satellite Introduction
Starlink 计划是 SpaceX 推出的全球卫星互联网项目,通过发射低轨道卫星,为全球尤其是偏远地区提供高速、低延迟的互联网服务。自 2019 年起,Starlink 已部署数千颗卫星,旨在缩小全球数字鸿沟,推动互联网普及。该项目还为军事、航空等行业提供通信支持,带来广泛经济效益。
2D Orbit Map
3D Orbit Map
Orbit Altitude Analysis Chart
Orbit Inclination Analysis Chart
Orbit Comprehensive Analysis Chart
View Comprehensive Chart
Conjunction Data List
Event ID Objects TCA Miss Dist (km) Collision Risk Probability Collision Risk Index (CRI) Action
CDM_260906-030406-186106-752021
2026-09-06T
03:04:12+0000
0.099 km
近距离
1.046794E-3 极高风险 0.95
CDM_260906-043606-186106-645921
2026-09-06T
04:36:22+0000
0.192 km
中距离
5.849715E-4 高风险 0.9
CDM_260906-114206-186106-752021
2026-09-06T
11:42:03+0000
0.885 km
远距离
2.287995E-5 中风险 0.62
CDM_260906-030206-186106-645921
2026-09-06T
03:02:13+0000
1.358 km
极远距离
4.500556E-6 低风险 0.48
CDM_260906-061006-186106-645921
2026-09-06T
06:10:31+0000
1.545 km
极远距离
2.989141E-6 低风险 0.45
CDM_260906-131606-186106-752021
2026-09-06T
13:16:12+0000
2.326 km
极远距离
1.22539E-6 低风险 0.37
CDM_260906-013006-186106-752021
2026-09-06T
01:30:03+0000
2.347 km
极远距离
1.203862E-6 低风险 0.37
CDM_260906-043806-186106-752021
2026-09-06T
04:38:21+0000
2.540 km
极远距离
1.048702E-6 低风险 0.35
CDM_260906-012806-186106-645921
2026-09-06T
01:28:03+0000
2.756 km
极远距离
8.157733E-7 极低风险 0.33